Cloud_Cover
46 94 36 100 66 100 100 100 98 19 5 50 100 92 44 8 4 10 77 97 90 100 100 94 73 100 92 51 6 5 5 81 100 100 100 99 100 100 100 95 100 100 100 100
88 89 100 42 97 97 100 100 100 100 100 100 95 90 17 23 68 5 6 100 92 99 67 59 7 7 37 71 16 5 16 5 42 100 100 100 100 95 93 99 100 100 100 100
100 100 100 92 64 93 100 100 64 53 95 100 81 44 100 48 85 96 17 8 67 100 95 33 5 30 14 25 59 5 5 84 99 97 100 84 54 100 61 46 100 100 100 100
100 100 99 100 100 89 97 38 39 5 10 100 76 100 100 100 27 17 5 65 100 77 69 100 59 93 76 96 98 5 5 5 9 11 83 97 93 95 88 76 89 100 100 91
98 100 99 100 99 5 14 79 71 76 100 61 87 84 99 95 5 88 100 82 100 20 4 11 78 83 42 100 27 7 6 45 89 59 40 24 96 100 93 46 24 17 92 100
100 100 100 65 5 6 4 39 44 9 33 51 100 79 80 80 16 100 100 92 4 0 0 16 81 86 37 89 6 43 12 8 58 71 53 71 91 50 55 38 22 89 100 97
96 74 44 97 62 3 100 100 96 100 100 62 100 94 90 100 100 30 8 9 4 0 0 0 1 52 100 100 6 5 77 36 92 63 100 85 10 5 4 3 3 11 44 31
96 100 100 100 100 100 100 100 100 82 100 100 99 100 99 12 1 96 100 16 0 0 0 0 0 2 23 47 17 5 9 100 18 5 15 10 5 4 2 5 0 2 1 31
100 100 99 96 14 95 100 100 100 100 100 94 100 100 5 96 100 100 34 5 4 0 0 0 0 0 2 4 3 29 5 2 4 5 5 5 2 8 2 3 2 5 1 0
86 100 73 4 100 96 18 76 50 91 100 99 100 100 84 100 64 0 0 0 0 0 0 0 0 0 0 0 0 4 0 0 1 55 77 2 5 9 24 94 100 100 43 2
85 100 100 88 56 90 40 91 100 100 100 96 100 100 93 16 0 0 0 0 0 0 0 0 1 2 4 0 5 0 0 5 16 58 7 47 56 86 100 99 49 16 17 2
100 100 100 100 100 100 100 100 100 100 100 45 44 1 24 0 0 0 0 0 0 0 0 0 0 5 90 14 5 1 81 34 12 5 6 25 100 100 86 68 10 5 5 51
3 16 14 100 100 5 0 0 31 70 97 97 100 98 100 93 0 0 0 0 0 0 0 0 18 11 77 93 93 3 100 25 49 5 5 31 84 5 5 5 5 2 0 12
0 1 80 100 95 42 70 91 48 43 57 83 100 56 100 1 0 0 0 0 0 0 0 54 94 95 100 85 38 14 96 27 6 5 91 26 17 22 5 0 0 0 0 0
0 10 94 100 100 96 90 100 80 0 29 98 100 99 96 88 0 0 0 0 0 0 0 33 99 98 100 76 96 57 95 36 75 64 44 7 92 100 5 3 0 0 0 24
5 47 7 50 100 100 100 100 100 77 0 36 99 99 99 30 0 0 0 0 0 0 0 86 100 100 100 100 100 100 38 81 98 95 90 99 100 60 5 2 14 35 100 99
100 100 100 57 80 100 1 3 76 86 31 12 13 0 98 0 0 0 0 0 0 0 0 57 100 100 100 100 100 100 100 100 100 100 100 100 100 33 36 57 84 100 70 100
4 98 100 99 72 100 80 100 33 83 100 83 58 85 16 34 1 0 0 0 0 0 0 5 100 100 100 99 92 61 94 100 100 100 100 92 80 99 100 100 100 100 100 100
5 5 9 100 94 60 100 96 38 100 100 15 100 0 0 0 0 0 0 0 0 0 0 0 8 99 100 100 100 100 99 97 84 88 100 100 100 100 100 95 72 46 33 7
93 100 99 100 100 100 81 100 13 97 25 4 2 5 0 0 4 75 0 0 0 0 0 0 0 0 100 100 100 100 100 100 100 100 100 100 93 32 39 43 7 14 5 5
80 10 83 100 100 100 100 55 65 100 90 99 50 4 0 0 1 29 2 0 0 0 0 0 0 0 0 21 99 94 93 100 33 34 14 3 5 24 45 34 50 63 5 4
7 94 88 62 63 98 13 4 46 12 0 0 1 1 0 0 0 1 1 0 0 0 0 0 0 0 0 0 0 4 5 11 5 2 0 2 16 43 15 59 92 84 8 5
0 0 1 2 50 9 0 2 1 5 5 8 8 12 97 42 0 5 17 0 0 0 0 0 0 0 0 0 0 0 0 0 3 0 0 28 97 84 87 100 91 41 5 5
0 0 0 0 0 0 0 0 0 0 1 48 99 100 90 100 2 5 100 5 0 0 0 0 0 0 0 1 14 0 0 1 5 5 4 5 49 100 85 5 40 1 0 0
0 1 0 0 0 0 0 0 0 0 0 0 0 23 22 32 94 8 16 6 5 1 0 0 2 7 6 28 20 0 0 2 1 4 6 4 4 25 3 6 1 0 0 2
0 0 0 0 0 0 0 2 0 0 0 0 0 0 0 99 18 98 5 5 39 98 23 11 37 33 55 27 0 1 2 0 0 0 2 40 22 63 9 0 0 43 23 0